Regional Weather Roundup
Issued by NWS

Home | Current Version | Previous Version | Text Only | Print | Product List | Glossary On
Versions: 1 2 3 4 5 6 7 8 9 10 11 12 13 14 15 16 17 18 19 20 21 22 23 24 25 26 27 28 29 30 31 32 33 34 35 36 37 38 39 40 41 42 43 44 45 46 47 48 49 50
000
ASUS42 KFFC 300003
RWRGA
WEATHER ROUNDUP FOR GEORGIA
NATIONAL WEATHER SERVICE PEACHTREE CITY GA
800 PM EDT THU SEP 29 2016

NOTE: "FAIR" INDICATES FEW OR NO CLOUDS BELOW 12,000 FEET WITH NO
SIGNIFICANT WEATHER AND/OR OBSTRUCTIONS TO VISIBILITY.

* = USE WITH CAUTION. THE STATIONS MARKED WITH AN ASTERISK MAY NOT
REPORT WEATHER SUCH AS PRECIPITATION, FOG, OR THUNDER AND ARE NOT
QUALITY CONTROLLED BY NWS.

THE REMARK "TC" DENOTES TEMPERATURE READING IN DEGREES CELSIUS.

GAZ001>058-300100-
NORTH GEORGIA

CITY           SKY/WX    TMP DP  RH WIND       PRES   REMARKS
ATLANTA        PTCLDY    70  43  37 NW9       30.02R
6HR MIN TEMP:  70; 6HR MAX TEMP:  78;

ATHENS         CLEAR     70  47  43 NW6       29.99R
6HR MIN TEMP:  70; 6HR MAX TEMP:  85;

CHAMBLEE       CLEAR     69  43  38 NW7       30.02R
6HR MIN TEMP:  69; 6HR MAX TEMP:  78;

PEACHTREE CITY CLEAR     62  53  72 CALM      30.03R
6HR MIN TEMP:  62; 6HR MAX TEMP:  79;

ROME           CLOUDY    68  45  43 NW9       30.04R
6HR MIN TEMP:  68; 6HR MAX TEMP:  77;

WEST ATLANTA   CLEAR     66  47  50 W3        30.02R
6HR MIN TEMP:  66; 6HR MAX TEMP:  77;

GAINESVILLE    CLEAR     67  46  47 NW7       30.04R
6HR MIN TEMP:  67; 6HR MAX TEMP:  76;

CARTERSVILLE   CLOUDY    69  44  40 MISG      30.04R
6HR MIN TEMP:  68; 6HR MAX TEMP:  77;



CITY           SKY/WX    TMP DP  RH WIND       PRES   REMARKS
DALTON*        CLOUDY    64  46  52 N6        30.05S
LAWRENCEVILLE* CLEAR     68  46  45 CALM      30.01R
MARIETTA       CLEAR     69  43  39 NW7       30.02R
KENNESAW*      CLEAR     68  41  37 NW5       30.02R
CANTON*        CLEAR     64  39  39 NW3       30.05R
BLAIRSVILLE*     N/A    N/A N/A N/A MISG      30.06S
$$

GAZ059>098-102>109-300100-
CENTRAL GEORGIA

CITY           SKY/WX    TMP DP  RH WIND       PRES   REMARKS
AUGUSTA-BUSH   PTCLDY    75  62  64 CALM      29.92R
6HR MIN TEMP:  75; 6HR MAX TEMP:  90;

AUGUSTA-DANIEL MOCLDY    83  52  34 CALM      29.94R
6HR MIN TEMP:  83; 6HR MAX TEMP:  91;

COLUMBUS       CLEAR     76  43  30 NW10      29.99R
6HR MIN TEMP:  76; 6HR MAX TEMP:  86;

MACON          PTCLDY    78  53  41 NW9       29.96R
6HR MIN TEMP:  78; 6HR MAX TEMP:  91;

ROBINS AFB     CLEAR     74  56  52 NW10      29.95R


CITY           SKY/WX    TMP DP  RH WIND       PRES   REMARKS
LAGRANGE*      CLEAR     72  50  45 N3        30.02R
MILLEDGEVILLE* CLEAR     77  57  50 NW5       29.97R
$$

GAZ099>101-110>166-300100-
SOUTH GEORGIA

CITY           SKY/WX    TMP DP  RH WIND       PRES   REMARKS
SAVANNAH       PTCLDY    80  70  71 S8        29.95R
6HR MIN TEMP:  80; 6HR MAX TEMP:  95;

VALDOSTA       PTCLDY    76  69  79 CALM      29.96R
6HR MIN TEMP:  76; 6HR MAX TEMP:  92; 6HR PCP: TRACE;

ALMA           CLEAR     74  68  81 CALM      29.95R
6HR MIN TEMP:  74; 6HR MAX TEMP:  91;

ST SIMONS      CLEAR     82  75  79 SE10      29.95R
6HR MIN TEMP:  79; 6HR MAX TEMP:  87;

FT STEWART     MOCLDY    80  72  76 SE1       29.92R
ALBANY         PTCLDY    81  59  47 NW6       29.97R
HUNTER AFB     CLEAR     80  78  93 SE7       29.93R
MOODY AFB      CLEAR     82  62  51 W7        29.95R
BRUNSWICK      CLEAR     81  77  89 SE3       29.96R


CITY           SKY/WX    TMP DP  RH WIND       PRES   REMARKS
BAINBRIDGE*    CLEAR     77  64  65 CALM      29.96R
MOULTRIE*      CLEAR     79  63  57 CALM      29.97R
VIDALIA*       PTCLDY    79  68  69 CALM      29.95R
WAYCROSS*      MOCLDY    84  71  65 W3        29.95R
DOUGLAS*       CLEAR     75  63  64 CALM      29.97R
$$




USA.gov is the U.S. government's official web portal to all federal, state and local government web resources and services.